Weather in Mamadysh

Russia / Republic of Tatarstan     55°43′03″N   51°24′36″E
temp.,
°C
wind,
m/s
gust,
m/s
humid.,
%
clouds,
%
prec.,
mm/h
press.,
hPa
HPBL,
m
23 september, thu
thu2300:00+9se4889100 0.2 1023317
03:00+8ese3696100 0.5 1023219
06:00+9ese3692100 0.0 1023223
09:00+10ese4885100 0.1 1024304
12:00+12se5973100 0.0 1024561
15:00+11ese4874100 0.0 1023297
18:00+10e3970100 0.1 1022233
21:00+10ese2666100 0.1 1021148
24 september, fri
fri2400:00+12ese51359100 0.0 1019423
03:00+10sse41262100 0.2 1019627
06:00+9se61480100 0.9 1019662
09:00+12sse61366100 0.9 1018929
12:00+13sse61250100 0.0 1018966
15:00+10se51477100 0.6 1017704
18:00+9sse61488100 1.3 1017688
21:00+8se51393100 4.8 1017686
25 september, sat
sat2500:00+8se51190100 2.5 1017509
03:00+8ese61286100 2.9 1015448
06:00+8ese31083100 0.6 1013406
09:00+7e3788100 3.1 1013469
12:00+8e3779100 0.3 1012334
15:00+8se4879100 0.3 1012368
18:00+7e2586100 0.0 1012198
21:00+8ene1182100 0.0 101116
26 september, sun
sun2600:00+8ene1183100 0.0 101021
03:00+8ne2284100 0.0 101051
06:00+8ne2587100 0.0 1009128
09:00+10ene3474100 0.0 1008350
12:00+13e3456100 0.0 1008717
15:00+14ene565531 0.0 1009721
18:00+10ene6128234 0.0 1009412
21:00+9e71277100 0.0 1010455
27 september, mon
mon2700:00+10e71264100 0.0 1010544
03:00+8e81382100 0.0 1012614
06:00+7ene71089100 0.3 1014908
09:00+4ene71195100 1.9 1016772
12:00+7ene7116273 0.1 1018934
15:00+9ene71057100 0.1 10191196
18:00+6ene612535 0.0 1021443
21:00+4ene513615 0.0 1023368